This is the latest recevied weather packets stored in our database for station/object OK5TVR-6. If no packets are shown the sender has not sent any weather packets the latest 1 day(s).
| Time | Temp. | Humidity | Pressure | Rain* | Wind** | Luminosity | Snow |
|---|---|---|---|---|---|---|---|
| 1778007737 | 15° C | - | - | 0 mm | 25.03 m/s, 180° | - | - |
| 1778006640 | 14.44° C | - | - | 0 mm | 23.69 m/s, 270° | - | - |
| 1778005544 | 15.56° C | - | - | 20.83 mm | 2.24 m/s, 90° | - | - |
| 1778004447 | 15° C | - | - | 13.46 mm | 10.73 m/s, 315° | - | - |
| 1778003351 | 15.56° C | - | - | 8.64 mm | 36.66 m/s, 0° | - | - |
| 1778002254 | 16.11° C | - | - | 1.78 mm | 12.96 m/s, 315° | - | - |
| 1778001158 | 16.67° C | - | - | 3.56 mm | 27.72 m/s, 0° | - | - |
| 1778000061 | 21.11° C | - | - | 1.02 mm | 17.43 m/s, 90° | - | - |
| 1777998964 | 25.56° C | - | - | 0 mm | 5.81 m/s, 0° | - | - |
| 1777997868 | 26.67° C | - | - | 0 mm | 19.22 m/s, 0° | - | - |
| 1777996771 | 27.22° C | - | - | 0 mm | 12.07 m/s, 135° | - | - |
| 1777995675 | 28.33° C | - | - | 0 mm | 21.01 m/s, 135° | - | - |
| 1777994578 | 30.56° C | - | - | 0 mm | 8.94 m/s, 90° | - | - |
| 1777993482 | 30.56° C | - | - | 0 mm | 28.16 m/s, 180° | - | - |
| 1777992385 | 36.11° C | - | - | 0 mm | 50.07 m/s, 90° | - | - |
| 1777991288 | 36.67° C | - | - | 0 mm | 17.43 m/s, 0° | - | - |
| 1777990192 | 29.44° C | - | - | 0 mm | 19.67 m/s, 0° | - | - |
| 1777989095 | 29.44° C | - | - | 0 mm | 23.69 m/s, 90° | - | - |
| 1777987999 | 30.56° C | - | - | 0 mm | 22.8 m/s, 90° | - | - |
| 1777986902 | 31.67° C | - | - | 0 mm | 5.36 m/s, 180° | - | - |
| 1777985806 | 32.22° C | - | - | 0 mm | 16.54 m/s, 222° | - | - |
| 1777984709 | 31.67° C | - | - | 0 mm | 19.22 m/s, 90° | - | - |
| 1777983613 | 37.78° C | - | - | 0 mm | 16.09 m/s, 0° | - | - |
| 1777982516 | 35° C | - | - | 0 mm | 2.24 m/s, 45° | - | - |
| 1777981419 | 35° C | - | - | 0 mm | 20.12 m/s, 270° | - | - |
* Rain latest hour (hover to see other rain measurements)
** Current wind speed in m/s (hover to see current wind gust speed)